This is the latest recevied weather packets stored in our database for station/object K7CTM. If no packets are shown the sender has not sent any weather packets the latest 10 day(s).
| Time | Temp. | Humidity | Pressure | Rain* | Wind** | Luminosity | Snow |
|---|---|---|---|---|---|---|---|
| 1777566559 | 12.22° C | 36% | 1032.2 hPa | 0 mm | - | 736 W/m² | - |
| 1777566256 | 12.78° C | 35% | 1032.4 hPa | 0 mm | - | 208 W/m² | - |
| 1777565953 | 12.22° C | 36% | 1032.4 hPa | 0 mm | - | 663 W/m² | - |
| 1777565648 | 11.67° C | 36% | 1032.3 hPa | 0 mm | - | 617 W/m² | - |
| 1777565346 | 11.67° C | 38% | 1032.5 hPa | 0 mm | - | 600 W/m² | - |
| 1777565041 | 11.67° C | 42% | 1032.5 hPa | 0 mm | - | 584 W/m² | - |
| 1777564737 | 10.56° C | 43% | 1032.5 hPa | 0 mm | - | 569 W/m² | - |
| 1777564432 | 10.56° C | 43% | 1032.5 hPa | 0 mm | - | 553 W/m² | - |
| 1777564128 | 11.11° C | 43% | 1032.5 hPa | 0 mm | - | 537 W/m² | - |
| 1777563824 | 10.56° C | 43% | 1032.7 hPa | 0 mm | - | 526 W/m² | - |
| 1777563521 | 10° C | 47% | 1032.4 hPa | 0 mm | - | 508 W/m² | - |
| 1777563220 | 10° C | 47% | 1032.5 hPa | 0 mm | - | 498 W/m² | - |
| 1777562917 | 9.44° C | 47% | 1032.7 hPa | 0 mm | - | 485 W/m² | - |
| 1777562613 | 10° C | 48% | 1032.8 hPa | 0 mm | - | 478 W/m² | - |
| 1777562312 | 9.44° C | 45% | 1032.7 hPa | 0 mm | - | 458 W/m² | - |
| 1777562009 | 8.89° C | 48% | 1032.8 hPa | 0 mm | - | 436 W/m² | - |
| 1777561706 | 8.89° C | 51% | 1032.8 hPa | 0 mm | - | 421 W/m² | - |
| 1777561401 | 8.33° C | 53% | 1032.8 hPa | 0 mm | - | 403 W/m² | - |
| 1777561097 | 7.78° C | 55% | 1032.9 hPa | 0 mm | - | 385 W/m² | - |
| 1777560792 | 7.78° C | 57% | 1033 hPa | 0 mm | - | 370 W/m² | - |
| 1777560490 | 7.22° C | 56% | 1032.9 hPa | 0 mm | - | 354 W/m² | - |
| 1777560188 | 7.22° C | 58% | 1032.9 hPa | 0 mm | - | 343 W/m² | - |
| 1777559884 | 6.67° C | 61% | 1033 hPa | 0 mm | - | 325 W/m² | - |
| 1777559579 | 6.67° C | 59% | 1032.9 hPa | 0 mm | - | 307 W/m² | - |
| 1777559277 | 6.11° C | 61% | 1033 hPa | 0 mm | - | 287 W/m² | - |
* Rain latest hour (hover to see other rain measurements)
** Current wind speed in m/s (hover to see current wind gust speed)